Volver al catálogo

STARLINK-35066

ActivoComunicacionesSSO
NORAD 65386·PAYLOAD·🇺🇸 United States

Lanzado Aug 30, 2025 desde Vandenberg Space Force Base

Loading…

Próximos Pases (próximas 24 horas)

TLE

ActualizadoSource: CelesTrak SupGP

Época: Sep 14, 2026, 21:37 UTC

1 65386C 25191H   26257.90118056  .00027350  00000+0  84947-3 0  2576
2 65386  97.2842 124.0460 0002009  92.9101 244.2631 15.33407300    11

Sigue STARLINK-35066 en tiempo real con AllMySat

Download on the App Store